This demonstration page uses our WeatherBlox Daily Observations layout. Learn more.

Left ArrowRight Arrow

36.17497, -115.13722

Hourly Observations for August 17, 2020

Temp ( °F °C ) Dew Point ( °F °C ) Humidity (%) Winds ( mph kmh ) Pressure ( in mb ) Visibility ( mi km ) Precip ( " mm )
12:53 am 00:53 Clear 98 36.7 34 1.1 11 11 NW 5 7 29.83 1010 10 16 N/A
1:53 am 01:53 Clear 95 35 37 2.8 13 13 SE 6 9 29.85 1011 10 16 N/A
2:53 am 02:53 Clear 96 35.6 38 3.3 13 13 NNW 5 7 29.86 1011 10 16 N/A
3:53 am 03:53 Clear 93 33.9 37 2.8 14 14 NNW 8 13 29.85 1011 10 16 N/A
4:53 am 04:53 Clear 90 32.2 37 2.8 15 15 ESE 5 7 29.85 1011 10 16 N/A
5:53 am 05:53 Clear 92 33.3 34 1.1 13 13 N 6 9 29.88 1012 10 16 N/A
6:53 am 06:53 Sunny 91 32.8 43 6.1 19 19 NNW 6 9 29.91 1013 10 16 N/A
7:53 am 07:53 Sunny 95 35 46 7.8 19 19 NW 8 13 29.93 1014 10 16 N/A
8:53 am 08:53 Sunny 100 37.8 49 9.4 18 18 N 7 11 29.94 1014 10 16 N/A
9:53 am 09:53 Sunny 102 38.9 52 11.1 19 19 SE 8 13 29.95 1014 10 16 N/A
10:53 am 10:53 Sunny 103 39.4 50 10 17 17 E 9 15 29.96 1015 10 16 N/A
11:53 am 11:53 Sunny 106 41.1 50 10 15 15 N N/A 29.94 1014 10 16 N/A
12:53 pm 12:53 Sunny 109 42.8 53 11.7 16 16 VRB 7 11 29.92 1013 10 16 N/A
1:53 pm 13:53 Sunny 110 43.3 53 11.7 15 15 VRB 3 6 29.90 1012 10 16 N/A
2:53 pm 14:53 Sunny 111 43.9 50 10 13 13 SSE 5 7 29.87 1012 10 16 N/A
3:53 pm 15:53 Sunny 112 44.4 45 7.2 11 11 S 6 9 29.84 1011 10 16 N/A
4:53 pm 16:53 Sunny 112 44.4 44 6.7 10 10 SSW 6 9 29.82 1010 10 16 N/A
5:53 pm 17:53 Sunny 112 44.4 38 3.3 8 8 SW 3 6 29.81 1009 10 16 N/A
6:53 pm 18:53 Sunny 112 44.4 36 2.2 7 7 WNW 3 6 29.80 1009 10 16 N/A
7:53 pm 19:53 Clear 108 42.2 41 5 10 10 WNW 3 6 29.82 1010 10 16 N/A
8:53 pm 20:53 Clear 104 40 46 7.8 14 14 WNW 5 7 29.82 1010 10 16 N/A
9:53 pm 21:53 Clear 100 37.8 45 7.2 15 15 WNW 5 7 29.84 1011 10 16 N/A
10:53 pm 22:53 Clear 96 35.6 42 5.6 15 15 NNW 3 6 29.85 1011 10 16 N/A
11:53 pm 23:53 Clear 96 35.6 36 2.2 12 12 N N/A 29.85 1011 10 16 N/A

Powered by AerisWeather